Location: Newark
(49.8969°N, 3.3422°E)
Time: 05:44:48
(UTC+00:00)

Explorer 7 - Pass Details

Date: 28 January 2020
Orbit: 485 x 679 km, 50.3° (Epoch: 27 February)

Event Time Altitude Azimuth Distance (km) Brightness Sun altitude
Rises 02:05:51 0° 284° (WNW) 2,553 - -49.6°
Reaches altitude 10° 02:08:01 10° 280° (W) 1,677 - -49.3°
Maximum altitude 02:11:44 56° 202° (SSW) 593 - -48.9°
Drops below altitude 10° 02:15:33 10° 123° (ESE) 1,727 - -48.4°
Sets 02:17:48 0° 120° (ESE) 2,638 - -48.1°
